loading
DOY 175 | 2024-06-23T10:48:19Z

THOR ABLESTAR DEB, 541

Orbit data source: Space-Track

THOR ABLESTAR DEB, 541 is space debris in LEO originally from a launch on Thu, 29 Jun 1961 UTC launched from the Air Force Eastern Test Range (AFETR). Debris objects in space refer to the collection of defunct objects orbiting the Earth. Examples of debris include non-operational satellites, rocket bodies, and fragments generated from explosions, collisions, or faulty payload assembly.

Loading next visibility...
Loading greatness...
THOR ABLESTAR DEB details
NORAD ID541
COSPAR ID
1961-015GA
Orbit
LEO
Last TLE update16 hours ago
Origin
Flag of USUSAF SSD (US)
ManufacturerUnknown
BusUnknown
MotorUnknown
MassWet unknown, Dry mass unknown
Launch date (UTC)
1961-06-29 (63 years ago)
Launch vehicleUnknown
Launch site
Air Force Eastern Test Range (AFETR)
Object type
Payload
Rocket body
Debris
Radar Cross SectionSmall (<0.1 m²)
Predictive object data (real-time)
Latitude10.55005°
Longitude132.42799°
Altitude958.19 km
Speed7.367 km/s
Apparent Right ascension22h 23m 45s
Apparent Declination-49° 37' 38"
Sunlit
Object is in daylight
Predictive observer data (real-time)
Local Sidereal Time21:56:14
Azimuth175.551° S
Elevation0.252°
Doppler factor1
Orbital elements
Apogee993.828 km
Perigee890.835 km
Semi-major axis7,320.468 km
Eccentricity0.0070346
Inclination67.2196°
RAAN328.3621°
Arg. of periapsis116.8413°
True anomaly243.26645°
Mean anomaly243.9881°
Mean motion3.46525 °/min
BSTAR0.0002918
Period103.89 mins
Definitive object data (Epoch: 2024-06-22T19:09:33.556Z)
Latitude-0.00008°
Longitude129.51578°
Altitude968.967 km
Speed7.356 km/s
True Right ascension21h 53m 26s
True Declination0° 00' 00"
Sunlit
Object was in full shadow at TLE epoch
TLE from 16 hours ago
0 THOR ABLESTAR DEB
1 00541U 61015GA  24174.79830505  .00000268  00000-0  29180-3 0  9997
2 00541  67.2196 328.3621 0070346 116.8413 243.9881 13.85631195171930
Epoch: 2024-06-22T19:09Z
No data available

THOR ABLESTAR DEB Visibility forecast

Observer location: 39.9160978°, -105.1181434, 0m alt.

THOR ABLESTAR DEB is not visible in the next 10 days
Span
Click to sort rows by Start time (UTC) header in descending order
Start Az.
Max El. time (UTC)
Max El. Az.
Max El.
End time (UTC)
End Az.